GW3049 Weather Reports


Display with metric or nautical units.
time (UTC)temp
F
wind
direction
speed
MPH
gust
MPH
rain 1hr
in
rain 24hr
in
rain mn
in
humidity
%
barometer
mb
20260506023706 49 0.0 0.0 0.00 0.00 0.00 100 1007.1
20260506023205 49 0.0 0.0 0.00 0.00 0.00 100 1007.2
20260506022204 49 0.0 0.0 0.00 0.00 0.00 100 1007.2
20260506021205 49 0.0 0.0 0.00 0.00 0.00 100 1007.3
20260506020705 49 0.0 0.0 0.00 0.00 0.00 100 1007.3
20260506020206 49 0.0 0.0 0.00 0.00 0.00 100 1007.3
20260506015705 49 0.0 0.0 0.00 0.00 0.00 100 1007.3
20260506015204 50 0.0 0.0 0.00 0.00 0.00 100 1007.2
20260506014705 50 0.0 0.0 0.00 0.00 0.00 100 1007.2
20260506014204 50 0.0 0.0 0.00 0.00 0.00 100 1007.2
20260506013705 50 0.0 0.0 0.00 0.00 0.00 100 1007.2
20260506012705 50 0.0 0.0 0.00 0.00 0.00 100 1007.1
20260506012207 50 0.0 0.0 0.00 0.00 0.00 100 1007.1
20260506011705 50 0.0 0.0 0.00 0.00 0.00 100 1007.1
20260506011205 50 0.0 0.0 0.00 0.00 0.00 100 1007.1
20260506010705 50 0.0 0.0 0.00 0.00 0.00 100 1007.1
20260506010205 51 0.0 0.0 0.00 0.00 0.00 100 1007.1
20260506005704 51 0.0 0.0 0.00 0.00 0.00 100 1007.1
20260506004705 51 0.0 0.0 0.00 0.00 0.00 100 1007.3
20260506004205 51 0.0 0.0 0.00 0.00 0.00 100 1007.3
20260506003706 51 0.0 0.0 0.00 0.00 0.00 100 1007.3
20260506003205 52 0.0 0.0 0.00 0.00 0.00 100 1007.4
20260506002704 52 0.0 0.0 0.00 0.00 0.00 100 1007.4
20260506001705 52 0.0 0.0 0.00 0.00 0.00 100 1007.7
20260506001207 52 0.0 0.0 0.00 0.00 0.00 100 1007.7
20260506000706 52 0.0 0.0 0.00 0.00 0.00 100 1007.7
20260505235705 52 0.0 0.0 0.00 0.00 0.00 100 1007.7
20260505235205 52 0.0 0.0 0.00 0.00 0.00 100 1007.8
20260505234705 52 0.0 0.0 0.00 0.00 0.00 100 1007.8
20260505233205 52 0.0 0.0 0.00 0.00 0.00 99 1007.7
20260505232704 52 0.0 0.0 0.00 0.00 0.00 99 1007.7
20260505232206 52 0.0 0.0 0.00 0.00 0.00 99 1007.7
20260505231705 52 0.0 0.0 0.00 0.00 0.00 99 1007.7
20260505231204 52 0.0 0.0 0.00 0.00 0.00 99 1007.8
20260505230705 52 0.0 0.0 0.00 0.00 0.00 99 1007.8
20260505230204 53 0.0 0.0 0.00 0.00 0.00 99 1007.8
20260505225705 53 0.0 0.0 0.00 0.00 0.00 99 1007.8
20260505225206 53 0.0 0.0 0.00 0.00 0.00 99 1007.7
20260505224705 53 0.0 0.0 0.00 0.00 0.00 99 1007.7
20260505224204 53 0.0 0.0 0.00 0.00 0.00 99 1007.6
20260505223707 53 0.0 0.0 0.00 0.00 0.00 99 1007.6
20260505223204 53 0.0 0.0 0.00 0.00 0.00 99 1007.5
20260505222706 53 0.0 0.0 0.00 0.00 0.00 99 1007.5
20260505222204 53 0.0 0.0 0.00 0.00 0.00 99 1007.5
20260505221705 53 0.0 0.0 0.00 0.00 0.00 99 1007.5
20260505221205 54 0.0 0.0 0.00 0.00 0.00 98 1007.7
20260505220706 54 0.0 0.0 0.00 0.00 0.00 98 1007.7
20260505215705 54 0.0 0.0 0.00 0.00 0.00 98 1007.7
20260505215207 54 0.0 0.0 0.00 0.00 0.00 98 1007.7
20260505214704 54 0.0 0.0 0.00 0.00 0.00 98 1007.7
20260505214206 54 0.0 0.0 0.00 0.00 0.00 97 1007.7
20260505213705 54 0.0 0.0 0.00 0.00 0.00 97 1007.7
20260505213204 54 0.0 0.0 0.00 0.00 0.00 98 1007.7
20260505212705 54 0.0 0.0 0.00 0.00 0.00 98 1007.7
20260505211704 54 0.0 0.0 0.00 0.00 0.00 97 1007.8
20260505211206 54 0.0 0.0 0.00 0.00 0.00 97 1007.7
20260505210205 55 0.0 0.0 0.00 0.00 0.00 96 1007.6
20260505205706 55 0.0 0.0 0.00 0.00 0.00 96 1007.6
20260505204705 56 0.0 0.0 0.00 0.00 0.00 94 1007.4
20260505203207 55 0.0 0.0 0.00 0.00 0.00 94 1007.4
20260505202704 55 0.0 0.0 0.00 0.00 0.00 94 1007.4
20260505202206 55 0.0 0.0 0.00 0.00 0.00 96 1007.4
20260505200205 56 0.0 0.0 0.00 0.00 0.00 97 1007.2
20260505195704 56 0.0 0.0 0.00 0.00 0.00 97 1007.2
20260505195204 56 0.0 0.0 0.00 0.00 0.00 96 1007.0
20260505194206 56 0.0 0.0 0.00 0.00 0.00 95 1006.9
20260505193705 56 0.0 0.0 0.00 0.00 0.00 95 1006.9
20260505193206 56 0.0 0.0 0.00 0.00 0.00 95 1006.8
20260505192704 56 0.0 0.0 0.00 0.00 0.00 95 1006.8
20260505191706 56 0.0 0.0 0.00 0.00 0.00 94 1006.6
20260505191204 57 0.0 0.0 0.00 0.00 0.00 92 1006.6
20260505190704 57 0.0 0.0 0.00 0.00 0.00 92 1006.6
20260505185705 57 0.0 0.0 0.00 0.00 0.00 96 1006.7
20260505185206 57 0.0 0.0 0.00 0.00 0.00 98 1006.6
20260505183705 57 0.0 0.0 0.00 0.00 0.00 98 1006.7
20260505183204 57 0.0 0.0 0.00 0.00 0.00 98 1006.4
20260505182705 57 0.0 0.0 0.00 0.00 0.00 98 1006.4
20260505182206 57 0.0 0.0 0.00 0.00 0.00 98 1006.4
20260505181704 57 0.0 0.0 0.00 0.00 0.00 98 1006.4
20260505181205 57 0.0 0.0 0.00 0.00 0.00 96 1006.4
20260505180706 57 0.0 0.0 0.00 0.00 0.00 96 1006.4
20260505175705 57 0.0 0.0 0.00 0.00 0.00 96 1006.4
20260505175205 58 0.0 0.0 0.00 0.00 0.00 95 1006.5
20260505174705 58 0.0 0.0 0.00 0.00 0.00 95 1006.5
20260505174205 58 0.0 0.0 0.00 0.00 0.00 93 1006.8
20260505173706 58 0.0 0.0 0.00 0.00 0.00 93 1006.8
20260505173205 59 0.0 0.0 0.00 0.00 0.00 92 1006.7
20260505172705 59 0.0 0.0 0.00 0.00 0.00 92 1006.7
20260505172204 60 0.0 0.0 0.00 0.00 0.00 92 1006.6
20260505171704 60 0.0 0.0 0.00 0.00 0.00 92 1006.6
20260505171206 60 0.0 0.0 0.00 0.00 0.00 93 1006.5
20260505170705 60 0.0 0.0 0.00 0.00 0.00 93 1006.5
20260505165707 60 0.0 0.0 0.00 0.00 0.00 91 1006.4
20260505165205 60 0.0 0.0 0.00 0.00 0.00 91 1006.4
20260505164704 60 0.0 0.0 0.00 0.00 0.00 91 1006.4
20260505164204 60 0.0 0.0 0.00 0.00 0.00 91 1006.4
20260505163204 60 0.0 0.0 0.00 0.00 0.00 93 1006.4
20260505162704 60 0.0 0.0 0.00 0.00 0.00 93 1006.4
20260505161705 59 0.0 0.0 0.00 0.00 0.00 93 1006.4
20260505161207 59 0.0 0.0 0.00 0.00 0.00 95 1006.3
20260505160704 59 0.0 0.0 0.00 0.00 0.00 95 1006.3
20260505160205 58 0.0 0.0 0.00 0.00 0.00 96 1006.3
20260505153207 58 0.0 0.0 0.00 0.00 0.00 98 1006.9
20260505152705 58 0.0 0.0 0.00 0.00 0.00 98 1006.9
20260505152205 58 0.0 0.0 0.00 0.00 0.00 98 1006.9
20260505151707 58 0.0 0.0 0.00 0.00 0.00 98 1006.9
20260505151204 58 0.0 0.0 0.00 0.00 0.00 97 1007.0
20260505150705 58 0.0 0.0 0.00 0.00 0.00 97 1007.0
20260505150206 58 0.0 0.0 0.00 0.00 0.00 97 1007.0
20260505140204 58 0.0 0.0 0.00 0.00 0.00 95 1007.7
20260505130207 61 0.0 0.0 0.00 0.00 0.00 88 1007.1
20260505124707 64 0.0 0.0 0.00 0.00 0.00 79 1006.8
20260505124205 66 0.0 0.0 0.00 0.00 0.00 68 1006.5
20260505123707 66 0.0 0.0 0.00 0.00 0.00 68 1006.5
20260505122205 67 0.0 0.0 0.00 0.00 0.00 62 1006.4
20260505121704 67 0.0 0.0 0.00 0.00 0.00 62 1006.4
20260505121205 67 0.0 0.0 0.00 0.00 0.00 62 1006.4
20260505120704 67 0.0 0.0 0.00 0.00 0.00 62 1006.4
20260505115705 67 0.0 0.0 0.00 0.00 0.00 61 1006.3
20260505115205 68 0.0 0.0 0.00 0.00 0.00 60 1006.2
20260505114705 68 0.0 0.0 0.00 0.00 0.00 60 1006.2
20260505114205 68 0.0 0.0 0.00 0.00 0.00 57 1006.2
20260505113705 68 0.0 0.0 0.00 0.00 0.00 57 1006.2
20260505113206 69 0.0 0.0 0.00 0.00 0.00 58 1006.3
20260505112705 69 0.0 0.0 0.00 0.00 0.00 58 1006.3
20260505112204 69 0.0 0.0 0.00 0.00 0.00 58 1006.3
20260505111705 69 0.0 0.0 0.00 0.00 0.00 58 1006.3
20260505111204 68 0.0 0.0 0.00 0.00 0.00 59 1006.4
20260505110705 68 0.0 0.0 0.00 0.00 0.00 59 1006.4
20260505110206 68 0.0 0.0 0.00 0.00 0.00 60 1006.5
20260505102205 67 0.0 0.0 0.00 0.00 0.00 66 1007.0
20260505101705 67 0.0 0.0 0.00 0.00 0.00 66 1007.0
20260505101204 67 0.0 0.0 0.00 0.00 0.00 67 1007.1
20260505100705 67 0.0 0.0 0.00 0.00 0.00 67 1007.1
20260505100204 67 0.0 0.0 0.00 0.00 0.00 67 1007.2
20260505095704 67 0.0 0.0 0.00 0.00 0.00 67 1007.2
20260505095205 66 0.0 0.0 0.00 0.00 0.00 68 1007.2
20260505094705 66 0.0 0.0 0.00 0.00 0.00 68 1007.2
20260505094205 66 0.0 0.0 0.00 0.00 0.00 68 1007.3
20260505093704 66 0.0 0.0 0.00 0.00 0.00 68 1007.3
20260505092705 65 0.0 0.0 0.00 0.00 0.00 68 1007.5
20260505092205 65 0.0 0.0 0.00 0.00 0.00 68 1007.6
20260505091705 65 0.0 0.0 0.00 0.00 0.00 68 1007.6
20260505091205 65 0.0 0.0 0.00 0.00 0.00 68 1007.6
20260505090705 65 0.0 0.0 0.00 0.00 0.00 68 1007.6
20260505090206 65 0.0 0.0 0.00 0.00 0.00 69 1007.8
20260505085705 65 0.0 0.0 0.00 0.00 0.00 69 1007.8
20260505085206 65 0.0 0.0 0.00 0.00 0.00 69 1007.8
20260505084705 65 0.0 0.0 0.00 0.00 0.00 69 1007.8
20260505084205 64 0.0 0.0 0.00 0.00 0.00 69 1007.9
20260505083205 64 0.0 0.0 0.00 0.00 0.00 71 1008.0
20260505082704 64 0.0 0.0 0.00 0.00 0.00 71 1008.0
20260505082205 64 0.0 0.0 0.00 0.00 0.00 71 1008.0
20260505081706 64 0.0 0.0 0.00 0.00 0.00 71 1008.0
20260505081205 63 0.0 0.0 0.00 0.00 0.00 72 1008.0
20260505080706 63 0.0 0.0 0.00 0.00 0.00 72 1008.0
20260505080204 63 0.0 0.0 0.00 0.00 0.00 73 1008.2
20260505075705 63 0.0 0.0 0.00 0.00 0.00 73 1008.2
20260505075206 62 0.0 0.0 0.00 0.00 0.00 74 1008.2
20260505074704 62 0.0 0.0 0.00 0.00 0.00 74 1008.2
20260505074205 62 0.0 0.0 0.00 0.00 0.00 75 1008.2
20260505073704 62 0.0 0.0 0.00 0.00 0.00 75 1008.2
20260505073205 61 0.0 0.0 0.00 0.00 0.00 75 1008.3
20260505072205 61 0.0 0.0 0.00 0.00 0.00 76 1008.4
20260505071707 61 0.0 0.0 0.00 0.00 0.00 76 1008.4
20260505071205 60 0.0 0.0 0.00 0.00 0.00 77 1008.6
20260505070704 60 0.0 0.0 0.00 0.00 0.00 77 1008.6
20260505070204 60 0.0 0.0 0.00 0.00 0.00 78 1008.7
20260505065705 60 0.0 0.0 0.00 0.00 0.00 78 1008.7
20260505065206 60 0.0 0.0 0.00 0.00 0.00 79 1008.6
20260505064705 60 0.0 0.0 0.00 0.00 0.00 79 1008.6
20260505064205 59 0.0 0.0 0.00 0.00 0.00 82 1008.7
20260505063706 59 0.0 0.0 0.00 0.00 0.00 82 1008.7
20260505063204 59 0.0 0.0 0.00 0.00 0.00 83 1008.8
20260505062205 58 0.0 0.0 0.00 0.00 0.00 84 1008.9
20260505061705 58 0.0 0.0 0.00 0.00 0.00 84 1008.9
20260505060705 58 0.0 0.0 0.00 0.00 0.00 85 1009.0
20260505060205 57 0.0 0.0 0.00 0.00 0.00 86 1009.0
20260505055705 57 0.0 0.0 0.00 0.00 0.00 86 1009.0
20260505054704 57 0.0 0.0 0.00 0.00 0.00 88 1009.1
20260505054205 56 0.0 0.0 0.00 0.00 0.00 89 1009.1
20260505053706 56 0.0 0.0 0.00 0.00 0.00 89 1009.1
20260505053205 55 0.0 0.0 0.00 0.00 0.00 91 1009.1
20260505052705 55 0.0 0.0 0.00 0.00 0.00 91 1009.1
20260505052206 55 0.0 0.0 0.00 0.00 0.00 91 1009.1
20260505051705 55 0.0 0.0 0.00 0.00 0.00 91 1009.1
20260505051205 55 0.0 0.0 0.00 0.00 0.00 92 1009.1
20260505050706 55 0.0 0.0 0.00 0.00 0.00 92 1009.1
20260505041704 54 0.0 0.0 0.00 0.00 0.00 88 1009.3
20260505041205 54 0.0 0.0 0.00 0.00 0.00 87 1009.2
20260505040704 54 0.0 0.0 0.00 0.00 0.00 87 1009.2
20260505040206 55 0.0 0.0 0.00 0.00 0.00 87 1009.3
20260505035705 55 0.0 0.0 0.00 0.00 0.00 87 1009.3
20260505035205 55 0.0 0.0 0.00 0.00 0.00 87 1009.3
20260505034707 55 0.0 0.0 0.00 0.00 0.00 87 1009.3
20260505034204 55 0.0 0.0 0.00 0.00 0.00 87 1009.3
20260505033706 55 0.0 0.0 0.00 0.00 0.00 87 1009.3
20260505033204 55 0.0 0.0 0.00 0.00 0.00 86 1009.4
20260505032206 55 0.0 0.0 0.00 0.00 0.00 85 1009.5
20260505031704 55 0.0 0.0 0.00 0.00 0.00 85 1009.5
20260505031205 55 0.0 0.0 0.00 0.00 0.00 84 1009.6
20260505030706 55 0.0 0.0 0.00 0.00 0.00 84 1009.6
20260505030204 55 0.0 0.0 0.00 0.00 0.00 83 1009.7
20260505025704 55 0.0 0.0 0.00 0.00 0.00 83 1009.7
20260505025206 56 0.0 0.0 0.00 0.00 0.00 82 1009.7
20260505024705 56 0.0 0.0 0.00 0.00 0.00 82 1009.7
20260505024205 56 0.0 0.0 0.00 0.00 0.00 82 1009.7